Regional Weather Roundup
Issued by NWS

Home | Current Version | Previous Version | Graphics & Text | Print | Product List | Glossary On
Versions: 1 2 3 4 5 6 7 8 9 10 11 12 13 14 15 16 17 18 19 20 21 22 23 24 25 26 27 28 29 30 31 32 33 34 35 36 37 38 39 40 41 42 43 44 45 46 47 48 49 50
000
ASUS43 KOAX 260510
RWRNE

WEATHER ROUNDUP FOR NEBRASKA
NATIONAL WEATHER SERVICE OMAHA NE
1200 AM CDT TUE SEP 26 2017

NOTES: SATELLITE DATA IS BEING USED TO AUGMENT CLOUD COVER ABOVE
       12000 FEET.
       "FAIR" INDICATES FEW OR NO CLOUDS BELOW 12,000 FEET WITH NO
       SIGNIFICANT WEATHER AND/OR OBSTRUCTIONS TO VISIBILITY.


NEZ001>004-019>022-054>056-260600-
NEBRASKA PANHANDLE

CITY           SKY/WX    TMP DP  RH WIND       PRES   REMARKS
SCOTTSBLUFF    CLOUDY    45  41  86 E7        30.13R
ALLIANCE       CLOUDY    36  34  92 CALM      30.12F
CHADRON        CLOUDY    39  36  89 CALM      30.12S
GORDON         FAIR      40  38  94 CALM      30.12S
KIMBALL        CLEAR     38  38  99 S5        30.14S WCI  35
SIDNEY         PTCLDY    42  39  89 SE6       30.15S
$$

NEZ057>060-069>072-079>082-260600-
SOUTHWEST NEBRASKA

CITY           SKY/WX    TMP DP  RH WIND       PRES   REMARKS
NORTH PLATTE   CLOUDY    49  47  93 N7        30.13R
IMPERIAL       CLOUDY    48  45  89 N7        30.15R
LEXINGTON      LGT RAIN  50  48  93 N5        30.09F
MCCOOK         CLOUDY    50  49  96 NW9       30.12R
OGALLALA       CLOUDY    50  45  82 N3        30.15R
$$

NEZ005>010-023>029-035>040-094-260600-
NORTH CENTRAL NEBRASKA

CITY           SKY/WX    TMP DP  RH WIND       PRES   REMARKS
VALENTINE      CLOUDY    49  46  90 CALM      30.12R
AINSWORTH      CLOUDY    47  47 100 N6        30.11S
BROKEN BOW     LGT RAIN  49  48  97 N8        30.09R
O`NEILL        LGT RAIN  49  49 100 N8        30.07F
ORD            CLOUDY    49  46  90 NW9       30.06S
THEDFORD       CLOUDY    47  46  95 NW5       30.13S
$$

NEZ041-046>049-061>064-073>077-083>087-260600-
SOUTH CENTRAL NEBRASKA

CITY           SKY/WX    TMP DP  RH WIND       PRES   REMARKS
GRAND ISLAND   CLOUDY    51  51 100 NW9       30.05S
AURORA         DRIZZLE   50  50 100 NW8       30.04R
HASTINGS       RAIN      51  49  92 NW12      30.06R FOG
HEBRON         DRIZZLE   56  55  98 NW6       30.02R
HOLDREGE       LGT RAIN  49  48  95 N8        30.08S
KEARNEY        LGT RAIN  50  49  96 N8        30.08R
YORK           CLOUDY    54  54 100 N5        30.02S
$$

NEZ011>018-030>034-042>045-260600-
NORTHEAST NEBRASKA

CITY           SKY/WX    TMP DP  RH WIND       PRES   REMARKS
NORFOLK        CLOUDY    52  51  97 NW10      30.01S
ALBION         LGT RAIN  51  50  97 NW9       30.05S
BLAIR          RAIN      58  57  97 NW5       29.97S
COLUMBUS       CLOUDY    54  52  93 NW8       30.02R
FREMONT        LGT RAIN  56  55  98 NW5       29.99S
TEKAMAH        LGT RAIN  57  55  93 NW7       29.97R
WAYNE          CLOUDY    53  51  92 N8        30.00S
$$

NEZ050>053-065>068-078-088>093-260600-
SOUTHEAST NEBRASKA

CITY           SKY/WX    TMP DP  RH WIND       PRES   REMARKS
LINCOLN        LGT RAIN  57  56  96 NW8       30.00R
OMAHA EPPLEY   LGT RAIN  59  56  89 NW6       29.96F FOG
BEATRICE       LGT RAIN  59  59  98 N10       29.97S
FALLS CITY     LGT RAIN  65  65 100 NE3       29.93F
NEBRASKA CITY  LGT RAIN  64  64 100 CALM      29.96F
PLATTSMOUTH    RAIN      60  60 100 NW5       29.96F
$$

NEZ044-045-051>053-067-260600-
OMAHA AREA

CITY           SKY/WX    TMP DP  RH WIND       PRES   REMARKS
OMAHA EPPLEY   LGT RAIN  59  56  89 NW6       29.96F FOG
BLAIR          RAIN      58  57  97 NW5       29.97S
FREMONT        LGT RAIN  56  55  98 NW5       29.99S
MILLARD        LGT RAIN  60  58  94 NW5       29.97S
OFFUTT AFB     LGT RAIN  59  59 100 NW8       29.95F
PLATTSMOUTH    RAIN      60  60 100 NW5       29.96F
WAHOO          LGT RAIN  57  56  99 NW6       29.98F
$$




USA.gov is the U.S. government's official web portal to all federal, state and local government web resources and services.